Location: Cheyres
(46.8153°N, 6.7877°E)
Time: 12:50:40
(UTC+00:00)

Lacrosse 5 - Pass Details

Date: 11 May 2021
Orbit: 715 x 724 km, 57.0° (Epoch: 15 June)

Event Time Altitude Azimuth Distance (km) Brightness Sun altitude
Exits shadow 23:54:45 28° 105° (ESE) 1,323 3.1 -24.8°
Drops below altitude 10° 23:58:07 10° 67° (ENE) 2,204 4.7 -24.7°
Sets 00:00:43 0° 57° (ENE) 3,130 5.7 -24.7°
